Tracking 19827 objects as of 21-Aug-2019
HD Live streaming from Space Station
objects crossing your sky now

COSMOS 2408

Track COSMOS 2408 now!
10-day predictions
COSMOS 2408 is classified as:


NORAD ID: 28419
Int'l Code: 2004-037A
Perigee: 1,477.1 km
Apogee: 1,502.9 km
Inclination: 82.5 °
Period: 115.6 minutes
Semi major axis: 7861 km
RCS: 0.961 m2 (medium)
Launch date: September 23, 2004
Source: Commonwealth of Independent States (former USSR) (CIS)
Launch site: PLESETSK MISSILE AND SPACE COMPLEX (PKMTR)

Store-dump communications for Russian government and military.
aabbcc
Your satellite tracking list
Your tracking list is empty




NASA's NSSDC Master Catalog

Two Line Element Set (TLE):
1 28419U 04037A   19232.70520685  .00000016  00000-0  41503-4 0  9992
2 28419  82.4828  87.1569 0016398 334.1800  25.8461 12.45617068677758
Source of the keplerian elements: AFSPC